Retour au catalogue

STARLINK-32564

ActifCommunicationsVLEO
NORAD 61924·PAYLOAD·🇺🇸 United States

Lancé Nov 11, 2024 depuis Cape Canaveral Space Force Station

Loading…

Prochains Passages (prochaines 24 heures)

TLE

FraisSource: CelesTrak SupGP

Époque: Sep 14, 2026, 21:09 UTC

1 61924C 24207N   26257.88173611 -.00013999  00000+0 -50710-3 0  2579
2 61924  43.0020 297.1140 0001413 266.6559  42.9017 15.27581595    17

Suivez STARLINK-32564 en temps réel avec AllMySat

Download on the App Store